Terminal Aerodrome Forecast
Issued by NWS Dodge City, KS

Home | Current Version | Previous Version | Graphics & Text | Print | Product List | Glossary Off
Versions: 1 2 3 4 5 6 7 8 9 10 11 12 13 14 15 16 17 18 19 20 21 22 23 24 25 26 27 28 29 30 31 32 33 34 35 36

000
FTUS43 KDDC 280855 AAA
TAFDDC
TAF AMD
KDDC 280855Z 2809/2906 13010KT P6SM -RA OVC110
     FM281400 17020G28KT P6SM BKN150=

USA.gov is the U.S. government's official web portal to all federal, state and local government web resources and services.